EST,Max TemperatureF,Mean TemperatureF,Min TemperatureF,Max Dew PointF,MeanDew PointF,Min DewpointF,Max Humidity, Mean Humidity, Min Humidity, Max Sea Level PressureIn, Mean Sea Level PressureIn, Min Sea Level PressureIn, Max VisibilityMiles, Mean VisibilityMiles, Min VisibilityMiles, Max Wind SpeedMPH, Mean Wind SpeedMPH, Max Gust SpeedMPH,PrecipitationIn, CloudCover, Events, WindDirDegrees
2013-2-1,68,56,44,33,28,19,58,36,15,30.38,30.31,30.26,10,10,10,12,5,20,0.00,0,,329
2013-2-2,71,58,46,44,37,33,69,48,27,30.34,30.26,30.18,10,10,10,8,4,,0.00,0,,358
2013-2-3,70,58,46,46,40,32,80,52,35,30.22,30.15,30.09,10,10,10,16,6,23,0.00,0,,300
2013-2-4,69,57,45,44,38,30,89,52,24,30.17,30.12,30.07,10,10,10,9,4,,0.00,0,,324
2013-2-5,75,60,45,52,45,39,86,58,36,30.14,30.07,30.02,10,10,10,12,2,,0.00,1,,264
2013-2-6,77,68,59,62,57,52,81,68,47,30.15,30.10,30.05,10,10,10,9,2,,0.00,7,,93
2013-2-7,81,74,66,63,60,56,84,65,47,30.11,30.01,29.91,10,10,10,17,8,22,0.00,3,,171
2013-2-8,79,71,61,64,58,53,88,68,40,30.11,29.99,29.89,10,10,10,14,11,24,0.00,1,,285
2013-2-9,75,65,55,56,53,52,87,70,44,30.24,30.18,30.10,10,10,10,12,6,16,0.00,1,,26
2013-2-10,77,66,55,57,55,52,87,68,45,30.31,30.24,30.21,10,10,10,18,8,23,0.00,1,,106
2013-2-11,81,69,57,63,59,56,93,69,45,30.25,30.17,30.10,10,10,10,17,7,20,0.00,2,,164
2013-2-12,84,73,62,67,63,59,97,71,41,30.13,30.05,29.96,10,10,6,16,7,18,0.00,3,,208
2013-2-13,88,76,64,68,65,57,94,79,43,30.00,29.93,29.83,10,9,2,23,12,32,0.39,6,Rain,241
2013-2-14,66,62,57,60,58,55,97,85,70,30.06,30.02,29.95,10,10,6,10,4,16,0.24,8,Rain,348
2013-2-15,69,61,53,56,53,50,100,84,54,30.10,30.04,29.99,10,8,2,9,6,,0.04,5,,354
2013-2-16,68,60,50,52,41,26,89,56,33,30.15,30.00,29.93,10,10,10,25,9,33,0.00,1,,301
2013-2-17,54,46,37,22,15,3,47,31,13,30.38,30.29,30.18,10,10,10,14,8,22,0.00,0,,350
2013-2-18,66,52,37,45,35,22,74,52,33,30.40,30.34,30.25,10,10,10,16,5,23,0.00,1,,74
2013-2-19,79,64,48,57,50,45,90,63,36,30.25,30.17,30.08,10,10,10,15,4,28,0.00,1,,225
2013-2-20,75,68,59,61,55,50,94,74,50,30.17,30.11,30.05,10,10,7,12,5,,0.00,6,,12
2013-2-21,81,70,60,65,57,50,87,67,44,30.14,30.08,30.03,10,10,10,13,4,,0.00,3,,79
2013-2-22,86,74,62,69,64,59,100,85,41,30.12,30.07,30.02,10,6,0,16,5,21,0.00,1,Fog,147
2013-2-23,87,78,70,70,66,61,94,74,43,30.04,29.98,29.89,10,10,8,16,11,25,0.00,5,,204
2013-2-24,75,70,64,70,67,64,97,89,78,29.99,29.96,29.90,10,8,1,12,7,,0.42,5,Rain,298
2013-2-25,84,74,63,70,66,59,100,81,41,29.94,29.87,29.80,10,9,1,23,4,29,0.23,3,Rain,175
2013-2-26,77,72,66,70,67,58,94,85,68,29.89,29.81,29.77,10,10,6,18,11,28,0.06,6,Rain,209
2013-2-27,73,65,57,63,54,48,94,69,44,30.00,29.94,29.89,10,10,10,15,8,,0.00,1,,288
2013-2-28,73,62,52,50,47,39,86,59,30,30.03,29.97,29.90,10,10,10,17,9,23,0.00,0,,293